パンスターズ彗星

C/2017 K2 ( PanSTARRS )

English version
Home page
Updated on November 26, 2022

---------------------------------------------------------------------

・ プロフィール

発見日 2017年5月21日
発見光度 20.8等
発見者 Pan-STARRS 1 telescope (Haleakala)

・ 写真集

・ 軌道要素

Epoch 2022 Aug. 9.0 TT = JDT 2459800.5
T 2022 Dec. 19.68354 TT                                 Rudenko
q   1.7969117            (2000.0)            P               Q
z  -0.0004417      Peri.  236.19771     +0.01819615     +0.04924662
 +/-0.0000001      Node    88.23507     -0.18093986     +0.98245713
e   1.0007937      Incl.   87.56203     -0.98332582     -0.17986872
>From 10980 observations 2015 Nov. 23-2022 Sept. 27, mean residual 0".5.

・ 星図

・ 光度変化

        m1 = 4.0 + 5 logΔ + 7.5 log r

---------------------------------------------------------------------

軌道要素はM.P.E.C. 2022-V95に掲載されたものです。
星図はステラナビゲータ Ver.10 (アストロアーツ) で作成したものです。
光度グラフはComet for Windowsで作成したものです。

---------------------------------------------------------------------

Copyright(C) Seiichi Yoshida (comet@aerith.net). All rights reserved.